Location: Fontenoy
(49.4072°N, 3.2008°E)
Time: 08:11:10
(UTC+00:00)

Cosmos 2237 Rocket - Pass Details

Date: 15 May 2026
Orbit: 833 x 849 km, 71.0° (Epoch: 6 June)

Event Time Altitude Azimuth Distance (km) Brightness Sun altitude
Rises 22:35:49 0° 333° (NNW) 3,421 6.9 -19.9°
Reaches altitude 10° 22:38:24 10° 340° (NNW) 2,480 5.9 -20.0°
Maximum altitude 22:43:50 44° 52° (NE) 1,165 3.0 -20.3°
Enters shadow 22:47:04 22° 112° (ESE) 1,751 3.5 -20.4°
